When you browse on this site, cookies collect data to enhance your experience and personalize the content and advertising you see.
Visit our Privacy Policy to learn more. By continuing to use the site, you agree to this use of cookies and data.
  • In Spain
  • List of Countries
  • For 7 days
  • Water Temperature
  • Satellite Maps
  • Weather Map
  • Weather Widgets
  • user-avatar
    Login

    Hourly Weather Madison

    Today, 18 June, Tuesday

    Time Temperature Precipitation Wind Pressure Humidity
    00:00 +18°C° 0 mm 1 mps 737 mmHg 91%
    01:00 +16°C° 0 mm 1 mps 737 mmHg 92%
    02:00 +15°C° 0 mm 1 mps 737 mmHg 94%
    03:00 +14°C° 0 mm 1 mps 736 mmHg 95%
    04:00 +15°C° 0 mm 1 mps 736 mmHg 94%
    05:00 +15°C° 0 mm 1 mps 736 mmHg 93%
    06:00 +16°C° 0 mm 1 mps 736 mmHg 93%
    07:00 +18°C° 0 mm 1 mps 736 mmHg 91%
    08:00 +19°C° 0 mm 1 mps 736 mmHg 90%
    09:00 +19°C° 0 mm 1 mps 736 mmHg 88%
    10:00 +21°C° 0.2 mm 1 mps 736 mmHg 84%
    11:00 +22°C° 0.2 mm 1 mps 736 mmHg 81%
    12:00 +24°C° 0.2 mm 1 mps 736 mmHg 77%
    13:00 +24°C° 1.1 mm 1 mps 736 mmHg 78%
    14:00 +24°C° 1.1 mm 2 mps 735 mmHg 79%
    15:00 +25°C° 1.1 mm 2 mps 734 mmHg 80%
    16:00 +24°C° 0.7 mm 2 mps 734 mmHg 83%
    17:00 +24°C° 0.7 mm 2 mps 734 mmHg 86%
    18:00 +23°C° 0.7 mm 2 mps 734 mmHg 88%
    19:00 +21°C° 0.2 mm 2 mps 734 mmHg 90%
    20:00 +20°C° 0.2 mm 2 mps 734 mmHg 92%
    21:00 +18°C° 0.2 mm 2 mps 734 mmHg 93%
    22:00 +18°C° 0 mm 2 mps 734 mmHg 93%
    23:00 +19°C° 0 mm 1 mps 733 mmHg 93%

    Tomorrow, 19 June, Wednesday

    Time Temperature Precipitation Wind Pressure Humidity
    00:00 +18°C° 0 mm 1 mps 733 mmHg 93%
    01:00 +18°C° 0 mm 1 mps 733 mmHg 92%
    02:00 +18°C° 0 mm 1 mps 733 mmHg 92%
    03:00 +16°C° 0 mm 1 mps 732 mmHg 92%
    04:00 +16°C° 0.1 mm 1 mps 733 mmHg 93%
    05:00 +16°C° 0.1 mm 1 mps 733 mmHg 94%
    06:00 +16°C° 0.1 mm 1 mps 733 mmHg 95%
    07:00 +16°C° 0 mm 1 mps 733 mmHg 95%
    08:00 +17°C° 0 mm 2 mps 733 mmHg 94%
    09:00 +17°C° 0 mm 2 mps 733 mmHg 94%
    10:00 +18°C° 0 mm 3 mps 733 mmHg 91%
    11:00 +19°C° 0 mm 3 mps 733 mmHg 88%
    12:00 +20°C° 0 mm 3 mps 733 mmHg 85%
    13:00 +20°C° 0 mm 3 mps 732 mmHg 84%
    14:00 +20°C° 0 mm 3 mps 732 mmHg 84%
    15:00 +20°C° 0 mm 4 mps 731 mmHg 84%
    16:00 +20°C° 0 mm 3 mps 731 mmHg 85%
    17:00 +19°C° 0 mm 3 mps 731 mmHg 86%
    18:00 +19°C° 0 mm 3 mps 731 mmHg 87%
    19:00 +18°C° 0 mm 3 mps 731 mmHg 90%
    20:00 +17°C° 0 mm 2 mps 730 mmHg 93%
    21:00 +16°C° 0 mm 2 mps 730 mmHg 96%
    22:00 +15°C° 0 mm 2 mps 730 mmHg 96%
    23:00 +15°C° 0 mm 2 mps 730 mmHg 96%

    Day after tomorrow, 20 June, Thursday

    Time Temperature Precipitation Wind Pressure Humidity
    00:00 +14°C° 0 mm 2 mps 730 mmHg 96%
    01:00 +12°C° 0 mm 3 mps 730 mmHg 96%
    02:00 +12°C° 0 mm 3 mps 730 mmHg 96%
    03:00 +11°C° 0 mm 3 mps 730 mmHg 96%
    04:00 +11°C° 0 mm 3 mps 730 mmHg 94%
    05:00 +12°C° 0 mm 4 mps 730 mmHg 93%
    06:00 +12°C° 0 mm 4 mps 731 mmHg 92%
    07:00 +13°C° 0 mm 4 mps 731 mmHg 88%
    08:00 +15°C° 0 mm 4 mps 731 mmHg 84%
    09:00 +17°C° 0 mm 3 mps 731 mmHg 80%
    10:00 +19°C° 0 mm 3 mps 732 mmHg 76%
    11:00 +20°C° 0 mm 3 mps 732 mmHg 72%
    12:00 +21°C° 0 mm 3 mps 732 mmHg 68%
    13:00 +23°C° 0 mm 2 mps 732 mmHg 68%
    14:00 +23°C° 0 mm 2 mps 732 mmHg 67%
    15:00 +24°C° 0 mm 2 mps 732 mmHg 66%
    16:00 +23°C° 0 mm 2 mps 733 mmHg 70%
    17:00 +23°C° 0 mm 2 mps 733 mmHg 73%
    18:00 +23°C° 0 mm 1 mps 733 mmHg 77%
    19:00 +20°C° 0 mm 2 mps 734 mmHg 82%
    20:00 +18°C° 0 mm 2 mps 734 mmHg 86%
    21:00 +16°C° 0 mm 2 mps 735 mmHg 91%
    22:00 +16°C° 0 mm 2 mps 735 mmHg 92%
    23:00 +15°C° 0 mm 2 mps 735 mmHg 92%

    21 June, Friday

    Time Temperature Precipitation Wind Pressure Humidity
    00:00 +14°C° 0 mm 2 mps 735 mmHg 93%
    01:00 +14°C° 0 mm 2 mps 735 mmHg 92%
    02:00 +14°C° 0 mm 2 mps 735 mmHg 92%
    03:00 +14°C° 0 mm 2 mps 735 mmHg 91%
    04:00 +14°C° 0 mm 2 mps 736 mmHg 90%
    05:00 +15°C° 0 mm 2 mps 736 mmHg 89%
    06:00 +15°C° 0 mm 2 mps 737 mmHg 89%
    07:00 +17°C° 0 mm 3 mps 737 mmHg 86%
    08:00 +18°C° 0 mm 3 mps 737 mmHg 83%
    09:00 +20°C° 0 mm 3 mps 738 mmHg 81%
    10:00 +21°C° 0 mm 4 mps 738 mmHg 81%
    11:00 +21°C° 0 mm 4 mps 738 mmHg 80%
    12:00 +22°C° 0 mm 4 mps 738 mmHg 80%
    13:00 +22°C° 0.1 mm 5 mps 737 mmHg 80%
    14:00 +22°C° 0.1 mm 5 mps 737 mmHg 81%
    15:00 +22°C° 0.1 mm 6 mps 736 mmHg 82%
    16:00 +21°C° 0 mm 5 mps 737 mmHg 80%
    17:00 +21°C° 0 mm 5 mps 737 mmHg 79%
    18:00 +20°C° 0 mm 4 mps 737 mmHg 78%
    19:00 +19°C° 0.1 mm 5 mps 737 mmHg 78%
    20:00 +19°C° 0.1 mm 5 mps 736 mmHg 79%
    21:00 +19°C° 0.1 mm 5 mps 736 mmHg 79%
    22:00 +17°C° 0.3 mm 5 mps 736 mmHg 83%
    23:00 +17°C° 0.3 mm 5 mps 736 mmHg 86%

    22 June, Saturday

    Time Temperature Precipitation Wind Pressure Humidity
    00:00 +17°C° 0.3 mm 5 mps 736 mmHg 90%
    01:00 +17°C° 0.2 mm 5 mps 735 mmHg 92%
    02:00 +19°C° 0.2 mm 5 mps 735 mmHg 94%
    03:00 +19°C° 0.2 mm 5 mps 735 mmHg 96%
    04:00 +19°C° 1.6 mm 6 mps 735 mmHg 96%
    05:00 +20°C° 1.6 mm 6 mps 735 mmHg 97%
    06:00 +20°C° 1.6 mm 6 mps 734 mmHg 97%
    07:00 +21°C° 1 mm 6 mps 734 mmHg 96%
    08:00 +22°C° 1 mm 5 mps 734 mmHg 96%
    09:00 +23°C° 1 mm 5 mps 734 mmHg 95%
    10:00 +25°C° 1.3 mm 5 mps 734 mmHg 95%
    11:00 +25°C° 1.3 mm 5 mps 734 mmHg 95%
    12:00 +26°C° 1.3 mm 6 mps 734 mmHg 95%
    13:00 +27°C° 0.3 mm 6 mps 733 mmHg 91%
    14:00 +29°C° 0.3 mm 6 mps 733 mmHg 88%
    15:00 +32°C° 0.3 mm 6 mps 733 mmHg 84%
    16:00 +30°C° 0.5 mm 5 mps 733 mmHg 85%
    17:00 +30°C° 0.5 mm 4 mps 733 mmHg 87%
    18:00 +30°C° 0.5 mm 3 mps 733 mmHg 89%
    19:00 +29°C° 0.1 mm 3 mps 733 mmHg 91%
    20:00 +28°C° 0.1 mm 3 mps 732 mmHg 93%
    21:00 +27°C° 0.1 mm 3 mps 732 mmHg 95%
    22:00 +27°C° 1.1 mm 3 mps 732 mmHg 95%
    23:00 +26°C° 1.1 mm 4 mps 732 mmHg 95%

    23 June, Sunday

    Time Temperature Precipitation Wind Pressure Humidity
    00:00 +26°C° 1.1 mm 4 mps 732 mmHg 95%
    01:00 +26°C° 1 mm 4 mps 731 mmHg 96%
    02:00 +26°C° 1 mm 3 mps 731 mmHg 96%
    03:00 +25°C° 1 mm 3 mps 731 mmHg 96%
    04:00 +26°C° 0 mm 3 mps 731 mmHg 96%
    05:00 +26°C° 0 mm 4 mps 731 mmHg 96%
    06:00 +26°C° 0 mm 4 mps 731 mmHg 97%
    07:00 +27°C° 0.2 mm 5 mps 731 mmHg 92%
    08:00 +27°C° 0.2 mm 5 mps 731 mmHg 88%
    09:00 +28°C° 0.2 mm 6 mps 731 mmHg 84%
    10:00 +28°C° 0.4 mm 6 mps 731 mmHg 82%
    11:00 +28°C° 0.4 mm 6 mps 731 mmHg 81%
    12:00 +28°C° 0.4 mm 6 mps 731 mmHg 79%
    13:00 +28°C° 0.2 mm 6 mps 730 mmHg 80%
    14:00 +29°C° 0.2 mm 6 mps 730 mmHg 82%
    15:00 +29°C° 0.2 mm 6 mps 730 mmHg 83%
    16:00 +29°C° 0.2 mm 5 mps 730 mmHg 85%
    17:00 +29°C° 0.2 mm 5 mps 729 mmHg 86%
    18:00 +29°C° 0.2 mm 5 mps 729 mmHg 88%
    19:00 +28°C° 0.4 mm 5 mps 729 mmHg 90%
    20:00 +27°C° 0.4 mm 5 mps 729 mmHg 91%
    21:00 +26°C° 0.4 mm 5 mps 730 mmHg 92%
    22:00 +26°C° 0.2 mm 5 mps 729 mmHg 94%
    23:00 +25°C° 0.2 mm 4 mps 729 mmHg 95%
    Show more